Weather History for Burns, OR

Change the Weather History Date:

Tuesday, April 29, 2014

  Actual Average Record
Temperature  
Mean Temperature 45 °F 46 °F  
Max Temperature 64 °F 61 °F 80 °F (1968)
Min Temperature 25 °F 32 °F 15 °F (1962)
Degree Days  
Heating Degree Days 20 19  
Month to date heating degree days 624 636  
Since 1 July heating degree days 6691 7021  
Cooling Degree Days 0 0  
Month to date cooling degree days 0 0  
Year to date cooling degree days 0 0  
Moisture  
Dew Point 23 °F    
Average Humidity 50    
Maximum Humidity 81    
Minimum Humidity 19    
Precipitation  
Precipitation 0.00 in 0.03 in 0.38 in (1948)
Month to date precipitation 1.11 0.90  
Year to date precipitation 4.55 4.20  
Sea Level Pressure  
Sea Level Pressure 30.51 in    
Wind  
Wind Speed 7 mph (NNE)    
Max Wind Speed 15 mph    
Max Gust Speed 21 mph    
Visibility 10 miles    
Events      
T = Trace of Precipitation, MM = Missing Value Source: NWS Daily Summary

Daily Weather History Graph

Daily Weather History Graph

Search for Another Location

Airport:

Trip Planner

Search our weather history database for the weather conditions in past years. The results will help you decide how hot, cold, wet, or windy it might be!

Date:

Astronomy

Apr. 29, 2014 Rise Set
Actual Time 5:51 AM PDT 7:55 PM PDT
Civil Twilight 5:19 AM PDT 8:27 PM PDT
Nautical Twilight 4:41 AM PDT 9:05 PM PDT
Astronomical Twilight 3:59 AM PDT 9:48 PM PDT
Moon 6:12 AM PDT 8:41 PM PDT
Length of Visible Light 15h 07m
Length of Day
14h 04m
New Moon, 0% of the Moon is Illuminated
Apr 29
New Moon
May 6
First Quarter
May 14
Full
May 21
Last Quarter
May 28
New

Hourly Weather History & Observations

Time (PDT) Temp. Windchill Dew Point Humidity Pressure Visibility Wind Dir Wind Speed Gust Speed Precip Events Conditions
12:53 AM 30.9 °F 22.8 °F 23.0 °F 72% 30.45 in 10.0 mi NNE 9.2 mph - N/A   Clear
1:53 AM 28.0 °F - 21.9 °F 78% 30.47 in 10.0 mi Calm Calm - N/A   Clear
2:53 AM 26.1 °F 20.5 °F 21.9 °F 84% 30.49 in 10.0 mi WSW 4.6 mph - N/A   Clear
3:53 AM 28.0 °F 21.7 °F 21.9 °F 78% 30.49 in 10.0 mi WSW 5.8 mph - N/A   Clear
4:53 AM 26.1 °F 20.5 °F 21.0 °F 81% 30.51 in 10.0 mi West 4.6 mph - N/A   Clear
6:53 AM 32.0 °F 27.5 °F 25.0 °F 75% 30.53 in 10.0 mi West 4.6 mph - N/A   Clear
8:53 AM 48.9 °F - 21.9 °F 35% 30.55 in 10.0 mi NNE 5.8 mph - N/A   Clear
9:53 AM - - - N/A% 30.54 in - North - - N/A   Unknown
10:53 AM - - - N/A% 30.55 in - North - - N/A   Unknown
11:53 AM 57.9 °F - 21.0 °F 24% 30.55 in 10.0 mi NNE 9.2 mph - N/A   Clear
12:53 PM 60.1 °F - 21.0 °F 22% 30.53 in 10.0 mi Variable 5.8 mph - N/A   Clear
1:53 PM 62.1 °F - 23.0 °F 22% 30.53 in 10.0 mi ENE 9.2 mph - N/A   Clear
2:53 PM 63.0 °F - 24.1 °F 23% 30.52 in 10.0 mi ENE 10.4 mph - N/A   Clear
3:53 PM 64.0 °F - 26.1 °F 24% 30.51 in 10.0 mi NE 10.4 mph - N/A   Clear
4:53 PM 64.0 °F - 26.1 °F 24% 30.50 in 10.0 mi ENE 8.1 mph - N/A   Clear
5:53 PM 63.0 °F - 25.0 °F 24% 30.49 in 10.0 mi ENE 8.1 mph - N/A   Clear
6:53 PM 61.0 °F - 17.1 °F 18% 30.48 in 10.0 mi ENE 10.4 mph - N/A   Clear
7:53 PM 48.9 °F - 21.0 °F 33% 30.49 in 10.0 mi ENE 5.8 mph - N/A   Clear
8:53 PM 41.0 °F 34.7 °F 26.1 °F 55% 30.50 in 10.0 mi NE 10.4 mph - N/A   Clear
9:53 PM 39.0 °F 31.8 °F 24.1 °F 55% 30.50 in 10.0 mi NNE 11.5 mph - N/A   Clear
10:53 PM 37.9 °F 31.5 °F 23.0 °F 55% 30.50 in 10.0 mi North 9.2 mph - N/A   Clear
11:53 PM 37.0 °F 32.4 °F 24.1 °F 59% 30.50 in 10.0 mi West 5.8 mph - N/A   Clear